Tracking 19199 objects as of 25-Jun-2018
HD Live streaming from Space Station
objects crossing your sky now

FENGYUN 1C DEB

Track FENGYUN 1C DEB now!
10-day predictions


NORAD ID: 37447
Int'l Code: 1999-025EHR
Perigee: 831.4 km
Apogee: 894.9 km
Inclination: 99.1 °
Period: 102.1 minutes
Semi major axis: 7234 km
RCS: 0.0073 m2 (small)
Launch date: May 10, 1999
Source: People's Republic of China (PRC)
Launch site: Taiyaun Space Center, China (TSC)

Note: This is SATELLITE DEBRIS
aabbcc
Your satellite tracking list
Your tracking list is empty




NASA's NSSDC Master Catalog

Two Line Element Set (TLE):
1 37447U 99025EHR 18175.26054490 +.00000251 +00000-0 +16359-3 0  9997
2 37447 099.1041 196.5085 0043883 022.3950 038.5410 14.10987718249273
Source of the keplerian elements: AFSPC